NOAA NWS Hourly Roundups by Site

Regional Weather Roundup for Topeka, KS

To Select Another Site Choose from List

Select Site:  

000
ASUS43 KTOP 191608
RWRKS

WEATHER ROUNDUP FOR KANSAS
NATIONAL WEATHER SERVICE GOODLAND KS
1100 AM CDT SUN MAY 19 2019

NOTE:  "FAIR" INDICATES FEW OR NO CLOUDS BELOW 12,000 FEET WITH NO
SIGNIFICANT WEATHER AND/OR OBSTRUCTIONS TO VISIBILITY.

KSZ001>006-013>018-027>032-041>047-191700-
NORTHWEST KANSAS

CITY           SKY/WX    TMP DP  RH WIND       PRES   REMARKS
GOODLAND       SUNNY     52  34  50 NW20      29.99S
HAYS           SUNNY     54  43  66 N16G23    29.97R
HILL CITY      SUNNY     54  40  59 NW17G29   29.98R
RUSSELL        SUNNY     55  43  63 NW16      29.94R
$$

KSZ061>065-074>080-084>089-191700-
SOUTHWEST KANSAS

CITY           SKY/WX    TMP DP  RH WIND       PRES   REMARKS
DODGE CITY     SUNNY     56  41  57 N13       29.99R
ELKHART        SUNNY     58  39  48 CALM      30.02R
GARDEN CITY    SUNNY     52  40  63 N14       29.99S
GREAT BEND     SUNNY     55  45  68 NW15      29.97R
LIBERAL        SUNNY     57  41  55 N10       30.01S
PRATT          SUNNY     58  44  60 NW15      29.97S
$$

KSZ066>073-081>083-090>101-191700-
SOUTHEAST KANSAS

CITY           SKY/WX    TMP DP  RH WIND       PRES   REMARKS
CHANUTE        SUNNY     66  51  58 NW13      29.88R
COFFEYVILLE    SUNNY     67  54  63 NW12      29.89R
HUTCHINSON     SUNNY     58  46  64 W15       29.93R
MEDICINE LODGE   N/A     59  44  57 N15       29.96R
NEWTON         MOSUNNY   58  48  69 NW16      29.92S
PARSONS        MOSUNNY   66  54  65 NW15      29.90R
WICHITA INTL   SUNNY     61  44  53 NW16      29.93R
WICHITA JABRA  SUNNY     60  48  64 NW12G22   29.92R
WICHITA MCCONL SUNNY     61  46  57 W10G18    29.93R
WINFIELD       SUNNY     63  49  60 NW13G23   29.95R
$$

KSZ007>012-019>026-033>040-048>060-102>105-191700-
NORTHEAST KANSAS

CITY           SKY/WX    TMP DP  RH WIND       PRES   REMARKS
CONCORDIA      CLOUDY    56  44  64 NW18G28   29.90R
EMPORIA        MOSUNNY   60  48  64 NW15G30   29.88R
LAWRENCE       PTSUNNY   62  50  64 W14G23    29.82R
MANHATTAN      PTSUNNY   60  46  59 NW13G24   29.89R
MARYSVILLE     CLOUDY    55  46  71 NW15G23   29.86R
OLATHE IND     PTSUNNY   60  50  69 W17G25    29.83R
OLATHE EXE     CLOUDY    60  51  72 W15G24    29.81R
SALINA         MOSUNNY   58  46  64 NW14      29.91S
TOPEKA BILLARD PTSUNNY   62  49  62 W18G30    29.83R
TOPEKA FORBES  MOSUNNY   62  49  62 W20G29    29.84R
$$



 

View Past Reports for Topeka, KS.

Products Courtesy of NOAA-NWS
NWS Information Parsing Script by Ken True at Saratoga Weather - Script by SE Lincoln Weather.